Regional Weather Roundup
Issued by NWS Sioux Falls, SD

Home | Current Version | Previous Version | Text Only | Print | Product List | Glossary On
Versions: 1 2 3 4 5 6 7 8 9 10 11 12 13 14 15 16 17 18 19 20 21 22 23 24 25 26 27 28 29 30 31 32 33 34 35 36 37 38 39 40 41 42 43 44 45 46 47 48 49 50
000
ASUS43 KFSD 140902
RWRFSD

WEATHER ROUNDUP FOR SE SOUTH DAKOTA/SW MINNESOTA/NW IOWA
NATIONAL WEATHER SERVICE SIOUX FALLS SD
400 AM CDT MON JUL 14 2014

NOTE: "FAIR" INDICATES FEW OR NO CLOUDS BELOW 12,000 FEET WITH NO
SIGNIFICANT WEATHER AND OR OBSTRUCTIONS TO VISIBILITY.


SDZ038>040-050-052>070-141000-
SOUTHEAST SOUTH DAKOTA

CITY           SKY/WX    TMP DP  RH WIND       PRES   REMARKS
CHAMBERLAIN    CLEAR     54  46  75 NW8       30.08S
HURON          CLEAR     52  47  83 NW9       30.04R
MADISON        FAIR      52  50  93 NW8       30.02S
MITCHELL       CLEAR     54  46  74 NW9       30.04S
SIOUX FALLS    CLEAR     56  47  71 W7        30.00S
WINNER         FAIR      57  50  77 W5        30.10S
YANKTON        CLEAR     57  48  72 W6        30.03S
$$

MNZ071-072-080-081-089-090-097-098-141000-
SOUTHWEST MINNESOTA

CITY           SKY/WX    TMP DP  RH WIND       PRES   REMARKS
FAIRMONT       CLEAR     57  43  58 NW9       29.95R
JACKSON        CLEAR     54  48  82 W5        29.97S
LUVERNE        CLEAR     54  48  82 NW5       30.00S
MARSHALL       PTCLDY    54  46  76 W9        29.96S
MONTEVIDEO     CLOUDY    57  52  82 NW3       29.97S
PIPESTONE      CLEAR     55  48  76 NW7       30.00R
REDWOOD FALLS  PTCLDY    55  51  86 W7        29.94S
TRACY          CLEAR     56  49  77 W6        29.98R
WINDOM         CLEAR     52  48  87 W6        29.97R
WORTHINGTON    CLEAR     52  48  87 W7        29.99S
$$

IAZ001>003-012>014-020>022-031-032-NEZ013-014-SDZ071-141000-
NORTHWEST IOWA

CITY           SKY/WX    TMP DP  RH WIND       PRES   REMARKS
CHEROKEE       CLEAR     56  55  97 SW5       29.99S
DENISON        MOCLDY    63  59  88 N3        29.97S
ESTHERVILLE    CLEAR     55  51  86 W8        29.96S
LE MARS        CLEAR     55  54  94 CALM      30.00F
ORANGE CITY    CLEAR     55  50  82 W5        30.00S
SHELDON        CLEAR     54  50  87 W6        29.98S
SIOUX CITY     PTCLDY    61  58  90 W3        30.00S
SPENCER        CLEAR     53  50  89 W6        29.98S
STORM LAKE     CLEAR     57  57 100 W9        29.99F
$$

ABBREVIATIONS USED IN REMARKS
   TC - TEMPERATURE IN CELSIUS
  WCI - WIND CHILL INDEX
   HX - HEAT INDEX
  VSB - VISIBILITY



USA.gov is the U.S. government's official web portal to all federal, state and local government web resources and services.